QPF
0.01 0.01 0.01 0.00 0.00 0.00 0.00 0.00 0.00 0.00 0.00 0.00 0.00 0.00 0.00 0.00 0.00 0.00 0.00 0.00 0.00 0.00 0.00 0.00 0.00 0.00 0.00 0.00 0.00 0.00 0.00 0.00 0.00 0.01 0.00 0.00 0.00 0.00 0.00 0.00 0.00 0.00 0.00
0.01 0.01 0.01 0.01 0.00 0.00 0.00 0.00 0.00 0.00 0.00 0.00 0.00 0.00 0.00 0.00 0.00 0.00 0.00 0.00 0.00 0.00 0.00 0.00 0.00 0.00 0.00 0.00 0.01 0.01 0.01 0.01 0.01 0.02 0.02 0.01 0.01 0.01 0.00 0.00 0.00 0.00 0.00
0.01 0.01 0.01 0.01 0.00 0.00 0.00 0.00 0.00 0.00 0.00 0.00 0.00 0.00 0.00 0.00 0.00 0.00 0.00 0.00 0.00 0.01 0.01 0.01 0.01 0.00 0.00 0.00 0.01 0.01 0.01 0.02 0.02 0.02 0.02 0.02 0.02 0.02 0.01 0.01 0.01 0.00 0.00
0.00 0.00 0.00 0.00 0.00 0.00 0.00 0.00 0.00 0.00 0.00 0.00 0.01 0.01 0.01 0.01 0.01 0.01 0.01 0.01 0.01 0.02 0.02 0.02 0.01 0.01 0.01 0.01 0.00 0.01 0.01 0.02 0.02 0.02 0.02 0.03 0.03 0.02 0.02 0.02 0.01 0.01 0.00
0.00 0.00 0.00 0.00 0.00 0.00 0.00 0.00 0.00 0.00 0.00 0.00 0.01 0.01 0.01 0.01 0.01 0.01 0.01 0.01 0.01 0.01 0.01 0.01 0.01 0.01 0.01 0.01 0.01 0.01 0.01 0.01 0.02 0.02 0.03 0.02 0.03 0.03 0.03 0.02 0.02 0.01 0.01
0.00 0.00 0.00 0.00 0.00 0.00 0.00 0.00 0.00 0.00 0.00 0.00 0.00 0.00 0.00 0.01 0.01 0.01 0.01 0.01 0.00 0.00 0.00 0.00 0.00 0.00 0.00 0.00 0.00 0.00 0.00 0.01 0.01 0.01 0.02 0.02 0.03 0.04 0.03 0.03 0.03 0.03 0.02
0.00 0.00 0.00 0.00 0.00 0.00 0.00 0.00 0.00 0.00 0.00 0.00 0.00 0.00 0.00 0.00 0.00 0.00 0.00 0.00 0.00 0.00 0.00 0.00 0.00 0.00 0.00 0.00 0.00 0.00 0.00 0.00 0.00 0.01 0.01 0.02 0.04 0.05 0.05 0.04 0.05 0.04 0.04
0.00 0.00 0.00 0.00 0.00 0.00 0.00 0.00 0.00 0.00 0.00 0.00 0.00 0.00 0.00 0.00 0.00 0.00 0.00 0.00 0.00 0.00 0.00 0.00 0.00 0.00 0.00 0.00 0.00 0.00 0.00 0.00 0.00 0.00 0.01 0.02 0.03 0.05 0.06 0.06 0.07 0.07 0.06
0.00 0.00 0.00 0.00 0.00 0.00 0.00 0.00 0.00 0.00 0.00 0.00 0.00 0.00 0.00 0.00 0.00 0.00 0.00 0.00 0.00 0.00 0.00 0.00 0.00 0.00 0.00 0.00 0.00 0.00 0.00 0.00 0.00 0.01 0.01 0.02 0.02 0.04 0.05 0.06 0.07 0.08 0.08
0.00 0.00 0.00 0.00 0.00 0.00 0.00 0.00 0.00 0.00 0.00 0.00 0.00 0.00 0.00 0.00 0.01 0.00 0.00 0.00 0.00 0.00 0.00 0.00 0.00 0.00 0.00 0.00 0.00 0.00 0.00 0.00 0.00 0.01 0.01 0.02 0.03 0.03 0.04 0.05 0.06 0.07 0.08
0.00 0.00 0.00 0.00 0.00 0.00 0.00 0.00 0.00 0.00 0.00 0.00 0.00 0.00 0.00 0.00 0.01 0.01 0.01 0.00 0.00 0.00 0.00 0.00 0.00 0.00 0.00 0.00 0.00 0.00 0.00 0.00 0.01 0.01 0.02 0.02 0.03 0.03 0.04 0.04 0.05 0.07 0.09
0.00 0.00 0.00 0.00 0.00 0.00 0.00 0.00 0.00 0.00 0.00 0.00 0.00 0.00 0.00 0.00 0.00 0.01 0.01 0.00 0.00 0.00 0.00 0.00 0.00 0.00 0.00 0.00 0.00 0.00 0.01 0.01 0.02 0.02 0.02 0.02 0.03 0.03 0.04 0.04 0.05 0.06 0.09
0.00 0.00 0.00 0.00 0.00 0.00 0.00 0.00 0.00 0.00 0.00 0.00 0.00 0.00 0.00 0.00 0.00 0.00 0.00 0.00 0.00 0.00 0.00 0.00 0.00 0.00 0.00 0.00 0.01 0.00 0.00 0.01 0.01 0.01 0.01 0.01 0.01 0.02 0.02 0.03 0.03 0.04 0.06
0.00 0.00 0.00 0.00 0.00 0.00 0.00 0.00 0.00 0.00 0.00 0.00 0.00 0.00 0.00 0.00 0.00 0.00 0.00 0.00 0.00 0.00 0.00 0.00 0.00 0.00 0.00 0.01 0.01 0.00 0.01 0.01 0.01 0.01 0.01 0.01 0.01 0.01 0.01 0.02 0.02 0.02 0.03
0.00 0.00 0.00 0.00 0.00 0.00 0.00 0.00 0.00 0.00 0.00 0.00 0.00 0.00 0.00 0.00 0.00 0.00 0.00 0.00 0.01 0.01 0.00 0.00 0.00 0.00 0.01 0.02 0.02 0.02 0.04 0.03 0.01 0.01 0.01 0.01 0.01 0.01 0.01 0.01 0.01 0.01 0.01
0.00 0.00 0.00 0.00 0.00 0.00 0.00 0.00 0.00 0.00 0.00 0.00 0.00 0.00 0.00 0.00 0.00 0.00 0.00 0.00 0.01 0.02 0.02 0.01 0.01 0.01 0.02 0.02 0.01 0.03 0.03 0.02 0.01 0.01 0.01 0.01 0.01 0.01 0.01 0.01 0.01 0.01 0.01
0.00 0.00 0.00 0.00 0.00 0.00 0.00 0.00 0.00 0.00 0.00 0.00 0.00 0.00 0.00 0.00 0.00 0.00 0.00 0.01 0.01 0.02 0.03 0.02 0.02 0.02 0.03 0.03 0.03 0.03 0.03 0.03 0.04 0.02 0.01 0.01 0.01 0.01 0.02 0.01 0.02 0.01 0.01
0.00 0.00 0.00 0.00 0.00 0.00 0.00 0.00 0.00 0.00 0.01 0.01 0.01 0.01 0.00 0.00 0.00 0.00 0.00 0.01 0.02 0.03 0.04 0.04 0.03 0.02 0.03 0.03 0.03 0.03 0.02 0.02 0.04 0.03 0.01 0.01 0.01 0.02 0.02 0.02 0.01 0.01 0.01
0.00 0.00 0.00 0.00 0.00 0.00 0.00 0.01 0.01 0.01 0.01 0.01 0.01 0.01 0.00 0.00 0.00 0.00 0.01 0.01 0.02 0.03 0.05 0.05 0.04 0.03 0.02 0.02 0.03 0.03 0.03 0.04 0.03 0.02 0.01 0.01 0.01 0.01 0.01 0.01 0.01 0.00 0.00
0.00 0.00 0.00 0.00 0.01 0.01 0.01 0.01 0.01 0.01 0.01 0.01 0.01 0.00 0.00 0.00 0.01 0.01 0.01 0.02 0.03 0.04 0.05 0.05 0.04 0.03 0.02 0.03 0.04 0.05 0.05 0.05 0.04 0.03 0.02 0.01 0.01 0.01 0.01 0.00 0.00 0.00 0.00
0.00 0.00 0.01 0.01 0.01 0.01 0.01 0.00 0.00 0.00 0.00 0.00 0.00 0.00 0.00 0.00 0.01 0.01 0.02 0.03 0.04 0.05 0.05 0.05 0.04 0.03 0.02 0.03 0.05 0.06 0.06 0.05 0.04 0.03 0.02 0.02 0.01 0.01 0.01 0.01 0.01 0.01 0.01
0.01 0.01 0.01 0.01 0.01 0.00 0.00 0.00 0.00 0.00 0.00 0.00 0.00 0.00 0.00 0.00 0.01 0.01 0.01 0.02 0.03 0.04 0.06 0.06 0.06 0.04 0.03 0.04 0.06 0.07 0.07 0.06 0.04 0.02 0.01 0.01 0.01 0.01 0.02 0.02 0.03 0.04 0.03
0.01 0.01 0.00 0.00 0.00 0.00 0.00 0.00 0.00 0.00 0.00 0.00 0.00 0.00 0.00 0.00 0.00 0.01 0.01 0.01 0.01 0.03 0.06 0.09 0.10 0.08 0.06 0.06 0.09 0.09 0.07 0.06 0.05 0.03 0.02 0.01 0.01 0.03 0.03 0.05 0.07 0.05 0.03
0.00 0.00 0.00 0.00 0.00 0.00 0.00 0.00 0.00 0.00 0.00 0.00 0.01 0.01 0.01 0.01 0.01 0.01 0.02 0.02 0.02 0.04 0.08 0.09 0.11 0.10 0.08 0.08 0.08 0.08 0.08 0.06 0.04 0.02 0.01 0.01 0.03 0.05 0.05 0.07 0.09 0.08 0.06
0.00 0.00 0.00 0.00 0.00 0.00 0.00 0.00 0.00 0.00 0.00 0.00 0.00 0.01 0.01 0.01 0.01 0.02 0.02 0.03 0.04 0.06 0.10 0.13 0.13 0.11 0.09 0.07 0.06 0.05 0.05 0.04 0.03 0.02 0.02 0.03 0.05 0.07 0.08 0.08 0.09 0.12 0.10
0.00 0.00 0.00 0.00 0.00 0.00 0.00 0.00 0.00 0.00 0.00 0.00 0.00 0.00 0.01 0.01 0.01 0.03 0.04 0.05 0.06 0.08 0.11 0.13 0.13 0.10 0.07 0.04 0.03 0.03 0.03 0.03 0.03 0.02 0.02 0.03 0.05 0.06 0.10 0.12 0.13 0.15 0.14
MSLP
1016.43 1016.50 1016.56 1016.63 1016.71 1016.82 1016.95 1017.08 1017.21 1017.30 1017.36 1017.37 1017.34 1017.29 1017.25 1017.25 1017.30 1017.42 1017.59 1017.80 1018.01 1018.20 1018.33 1018.40 1018.41 1018.37 1018.31 1018.25 1018.21 1018.20 1018.21 1018.24 1018.27 1018.29 1018.29 1018.26 1018.23 1018.20 1018.19 1018.21 1018.26 1018.34 1018.46
1016.56 1016.62 1016.67 1016.74 1016.84 1016.95 1017.10 1017.24 1017.38 1017.49 1017.56 1017.58 1017.55 1017.50 1017.45 1017.42 1017.44 1017.51 1017.64 1017.81 1017.98 1018.14 1018.26 1018.33 1018.35 1018.31 1018.25 1018.18 1018.11 1018.07 1018.04 1018.02 1018.02 1018.00 1017.98 1017.95 1017.91 1017.88 1017.87 1017.89 1017.94 1018.02 1018.12
1016.90 1016.96 1017.02 1017.10 1017.21 1017.33 1017.47 1017.62 1017.75 1017.85 1017.90 1017.89 1017.85 1017.76 1017.67 1017.60 1017.57 1017.58 1017.66 1017.77 1017.90 1018.04 1018.14 1018.21 1018.22 1018.19 1018.11 1018.02 1017.92 1017.82 1017.74 1017.67 1017.61 1017.55 1017.50 1017.45 1017.41 1017.38 1017.37 1017.40 1017.45 1017.54 1017.66
1017.40 1017.48 1017.55 1017.64 1017.75 1017.87 1018.00 1018.12 1018.22 1018.28 1018.29 1018.24 1018.14 1018.02 1017.87 1017.75 1017.65 1017.61 1017.62 1017.68 1017.77 1017.87 1017.95 1018.00 1018.01 1017.96 1017.87 1017.74 1017.60 1017.45 1017.30 1017.17 1017.06 1016.96 1016.87 1016.80 1016.75 1016.73 1016.73 1016.76 1016.83 1016.94 1017.07
1017.99 1018.08 1018.17 1018.26 1018.37 1018.47 1018.57 1018.65 1018.70 1018.70 1018.64 1018.54 1018.38 1018.20 1018.01 1017.83 1017.68 1017.58 1017.53 1017.54 1017.58 1017.63 1017.68 1017.70 1017.69 1017.62 1017.50 1017.34 1017.16 1016.97 1016.78 1016.59 1016.43 1016.29 1016.18 1016.10 1016.03 1016.00 1016.01 1016.04 1016.12 1016.23 1016.37
1018.56 1018.66 1018.76 1018.86 1018.95 1019.03 1019.09 1019.12 1019.10 1019.03 1018.91 1018.74 1018.54 1018.31 1018.07 1017.85 1017.66 1017.51 1017.41 1017.36 1017.34 1017.34 1017.34 1017.32 1017.26 1017.17 1017.03 1016.85 1016.65 1016.43 1016.21 1016.00 1015.82 1015.66 1015.53 1015.43 1015.35 1015.31 1015.30 1015.32 1015.38 1015.48 1015.62
1019.04 1019.15 1019.25 1019.35 1019.43 1019.49 1019.50 1019.47 1019.39 1019.26 1019.08 1018.86 1018.62 1018.35 1018.09 1017.84 1017.62 1017.43 1017.29 1017.17 1017.09 1017.02 1016.95 1016.87 1016.77 1016.64 1016.48 1016.29 1016.09 1015.88 1015.67 1015.47 1015.29 1015.13 1015.00 1014.88 1014.79 1014.72 1014.67 1014.66 1014.68 1014.74 1014.85
1019.39 1019.50 1019.62 1019.71 1019.78 1019.81 1019.80 1019.72 1019.59 1019.41 1019.19 1018.94 1018.67 1018.39 1018.12 1017.87 1017.63 1017.41 1017.21 1017.02 1016.86 1016.70 1016.54 1016.39 1016.23 1016.06 1015.89 1015.71 1015.54 1015.36 1015.20 1015.04 1014.89 1014.75 1014.62 1014.50 1014.38 1014.27 1014.18 1014.10 1014.06 1014.06 1014.11
1019.61 1019.74 1019.85 1019.95 1020.02 1020.03 1020.00 1019.90 1019.74 1019.53 1019.29 1019.02 1018.75 1018.48 1018.22 1017.97 1017.71 1017.46 1017.21 1016.95 1016.69 1016.42 1016.17 1015.92 1015.70 1015.49 1015.31 1015.15 1015.02 1014.90 1014.80 1014.70 1014.60 1014.50 1014.38 1014.24 1014.10 1013.94 1013.78 1013.64 1013.52 1013.45 1013.43
1019.75 1019.88 1020.00 1020.10 1020.17 1020.18 1020.14 1020.03 1019.86 1019.65 1019.41 1019.15 1018.90 1018.65 1018.40 1018.15 1017.89 1017.61 1017.30 1016.95 1016.59 1016.21 1015.84 1015.50 1015.19 1014.94 1014.75 1014.61 1014.52 1014.46 1014.43 1014.40 1014.36 1014.29 1014.18 1014.04 1013.86 1013.66 1013.44 1013.22 1013.04 1012.89 1012.80
1019.84 1019.96 1020.09 1020.19 1020.27 1020.29 1020.25 1020.14 1019.98 1019.78 1019.55 1019.31 1019.08 1018.86 1018.64 1018.40 1018.13 1017.81 1017.44 1017.02 1016.55 1016.07 1015.58 1015.14 1014.75 1014.44 1014.22 1014.08 1014.02 1014.02 1014.04 1014.06 1014.06 1014.02 1013.93 1013.77 1013.57 1013.33 1013.06 1012.80 1012.56 1012.36 1012.22
1019.90 1020.02 1020.13 1020.24 1020.32 1020.35 1020.32 1020.22 1020.07 1019.88 1019.67 1019.46 1019.26 1019.06 1018.86 1018.63 1018.36 1018.02 1017.60 1017.11 1016.56 1015.97 1015.38 1014.84 1014.36 1013.99 1013.72 1013.57 1013.51 1013.52 1013.57 1013.62 1013.64 1013.61 1013.51 1013.36 1013.14 1012.88 1012.60 1012.31 1012.06 1011.84 1011.68
1019.93 1020.03 1020.13 1020.23 1020.30 1020.33 1020.30 1020.22 1020.08 1019.91 1019.71 1019.52 1019.34 1019.16 1018.98 1018.77 1018.50 1018.15 1017.71 1017.18 1016.56 1015.90 1015.23 1014.60 1014.04 1013.59 1013.26 1013.06 1012.96 1012.95 1012.98 1013.02 1013.03 1013.00 1012.90 1012.74 1012.53 1012.28 1012.01 1011.75 1011.52 1011.32 1011.17
1019.92 1019.98 1020.06 1020.13 1020.19 1020.21 1020.18 1020.09 1019.96 1019.79 1019.60 1019.42 1019.26 1019.10 1018.94 1018.74 1018.50 1018.16 1017.72 1017.18 1016.54 1015.84 1015.11 1014.41 1013.77 1013.24 1012.83 1012.55 1012.38 1012.31 1012.28 1012.28 1012.26 1012.20 1012.10 1011.95 1011.76 1011.55 1011.34 1011.13 1010.96 1010.82 1010.71
1019.83 1019.85 1019.89 1019.93 1019.96 1019.95 1019.91 1019.81 1019.67 1019.50 1019.32 1019.14 1018.98 1018.83 1018.69 1018.52 1018.31 1018.00 1017.60 1017.08 1016.45 1015.75 1015.00 1014.26 1013.56 1012.95 1012.45 1012.07 1011.80 1011.62 1011.51 1011.43 1011.37 1011.28 1011.18 1011.05 1010.91 1010.76 1010.62 1010.50 1010.41 1010.35 1010.31
1019.64 1019.62 1019.62 1019.62 1019.61 1019.58 1019.52 1019.40 1019.25 1019.07 1018.87 1018.69 1018.53 1018.39 1018.26 1018.13 1017.95 1017.70 1017.35 1016.88 1016.30 1015.63 1014.89 1014.13 1013.39 1012.70 1012.11 1011.62 1011.23 1010.94 1010.73 1010.58 1010.46 1010.35 1010.25 1010.15 1010.06 1009.99 1009.94 1009.92 1009.91 1009.93 1009.95
1019.38 1019.31 1019.27 1019.23 1019.20 1019.14 1019.06 1018.93 1018.76 1018.56 1018.35 1018.15 1017.98 1017.84 1017.72 1017.60 1017.47 1017.27 1016.98 1016.59 1016.08 1015.46 1014.75 1014.00 1013.22 1012.48 1011.80 1011.21 1010.71 1010.31 1010.01 1009.78 1009.61 1009.49 1009.41 1009.36 1009.33 1009.33 1009.36 1009.41 1009.47 1009.55 1009.61
1019.07 1018.97 1018.90 1018.84 1018.78 1018.72 1018.62 1018.48 1018.30 1018.08 1017.85 1017.63 1017.43 1017.27 1017.15 1017.04 1016.93 1016.77 1016.55 1016.22 1015.78 1015.22 1014.56 1013.82 1013.04 1012.25 1011.51 1010.83 1010.24 1009.76 1009.38 1009.10 1008.91 1008.79 1008.73 1008.72 1008.74 1008.80 1008.88 1008.97 1009.06 1009.15 1009.23
1018.76 1018.66 1018.57 1018.51 1018.45 1018.38 1018.28 1018.14 1017.95 1017.71 1017.46 1017.21 1016.97 1016.78 1016.62 1016.49 1016.38 1016.24 1016.05 1015.78 1015.39 1014.89 1014.27 1013.56 1012.78 1011.97 1011.18 1010.45 1009.81 1009.27 1008.85 1008.54 1008.35 1008.25 1008.22 1008.24 1008.30 1008.38 1008.46 1008.55 1008.62 1008.68 1008.73
1018.52 1018.42 1018.35 1018.30 1018.25 1018.19 1018.10 1017.96 1017.76 1017.51 1017.23 1016.93 1016.64 1016.38 1016.17 1015.99 1015.84 1015.69 1015.50 1015.25 1014.90 1014.43 1013.85 1013.17 1012.40 1011.60 1010.80 1010.05 1009.38 1008.82 1008.39 1008.10 1007.92 1007.85 1007.85 1007.89 1007.96 1008.02 1008.07 1008.09 1008.08 1008.06 1008.03
1018.39 1018.31 1018.26 1018.22 1018.20 1018.16 1018.08 1017.94 1017.74 1017.47 1017.14 1016.79 1016.43 1016.09 1015.78 1015.53 1015.31 1015.10 1014.89 1014.62 1014.28 1013.84 1013.28 1012.63 1011.89 1011.11 1010.33 1009.59 1008.93 1008.39 1007.99 1007.72 1007.58 1007.54 1007.56 1007.61 1007.65 1007.66 1007.62 1007.53 1007.41 1007.26 1007.12
1018.38 1018.32 1018.29 1018.29 1018.28 1018.25 1018.18 1018.04 1017.82 1017.51 1017.14 1016.71 1016.27 1015.83 1015.42 1015.06 1014.74 1014.46 1014.19 1013.89 1013.54 1013.10 1012.58 1011.96 1011.26 1010.52 1009.78 1009.08 1008.47 1007.98 1007.62 1007.40 1007.29 1007.28 1007.31 1007.34 1007.33 1007.26 1007.10 1006.87 1006.59 1006.29 1006.01
1018.47 1018.44 1018.43 1018.43 1018.43 1018.40 1018.32 1018.16 1017.91 1017.56 1017.12 1016.62 1016.08 1015.54 1015.02 1014.54 1014.12 1013.75 1013.41 1013.07 1012.70 1012.28 1011.78 1011.21 1010.56 1009.88 1009.21 1008.57 1008.02 1007.59 1007.29 1007.11 1007.05 1007.05 1007.08 1007.07 1006.99 1006.82 1006.53 1006.14 1005.69 1005.23 1004.82
1018.66 1018.63 1018.62 1018.61 1018.59 1018.54 1018.43 1018.23 1017.93 1017.53 1017.02 1016.43 1015.80 1015.16 1014.53 1013.96 1013.44 1012.99 1012.59 1012.22 1011.85 1011.44 1010.98 1010.46 1009.89 1009.28 1008.69 1008.13 1007.65 1007.29 1007.04 1006.91 1006.87 1006.88 1006.89 1006.84 1006.69 1006.41 1005.99 1005.46 1004.85 1004.25 1003.70
1018.90 1018.86 1018.82 1018.78 1018.72 1018.62 1018.45 1018.19 1017.83 1017.35 1016.77 1016.11 1015.40 1014.67 1013.97 1013.31 1012.73 1012.23 1011.80 1011.41 1011.05 1010.68 1010.28 1009.83 1009.34 1008.83 1008.32 1007.84 1007.44 1007.13 1006.93 1006.83 1006.81 1006.82 1006.80 1006.71 1006.49 1006.13 1005.61 1004.96 1004.24 1003.52 1002.88
1019.18 1019.10 1019.02 1018.92 1018.79 1018.62 1018.37 1018.04 1017.60 1017.05 1016.41 1015.68 1014.90 1014.12 1013.36 1012.67 1012.05 1011.54 1011.11 1010.74 1010.42 1010.11 1009.78 1009.42 1009.02 1008.60 1008.17 1007.77 1007.43 1007.18 1007.01 1006.93 1006.91 1006.91 1006.87 1006.74 1006.49 1006.07 1005.50 1004.79 1004.01 1003.23 1002.53
Thickness
5711 5708 5705 5701 5701 5699 5697 5693 5692 5689 5687 5686 5685 5682 5680 5677 5675 5673 5669 5662 5658 5656 5654 5653 5651 5651 5650 5650 5650 5650 5650 5650 5651 5652 5653 5653 5654 5655 5656 5657 5658 5659 5660
5705 5703 5699 5696 5694 5692 5690 5687 5684 5681 5680 5678 5676 5672 5669 5668 5664 5659 5659 5654 5649 5646 5643 5642 5640 5639 5639 5639 5639 5639 5640 5640 5641 5642 5644 5645 5646 5647 5649 5650 5651 5652 5653
5698 5696 5694 5690 5687 5683 5679 5678 5676 5673 5671 5668 5666 5662 5659 5655 5653 5649 5646 5644 5641 5637 5634 5631 5628 5627 5627 5627 5627 5628 5629 5630 5631 5632 5634 5636 5638 5640 5641 5643 5644 5645 5646
5691 5688 5686 5683 5677 5675 5673 5670 5668 5666 5662 5658 5656 5653 5650 5645 5641 5637 5634 5632 5629 5626 5624 5620 5617 5616 5615 5615 5616 5617 5617 5618 5620 5621 5624 5626 5629 5631 5633 5635 5636 5638 5639
5683 5680 5676 5671 5668 5666 5663 5660 5657 5653 5649 5644 5642 5640 5638 5634 5630 5626 5622 5618 5615 5612 5610 5608 5606 5605 5604 5603 5603 5604 5605 5606 5608 5610 5613 5616 5619 5622 5624 5626 5628 5629 5631
5672 5670 5665 5659 5658 5655 5650 5645 5641 5637 5632 5629 5628 5627 5624 5622 5618 5614 5609 5606 5602 5599 5598 5596 5595 5596 5594 5592 5591 5591 5592 5593 5595 5597 5600 5604 5607 5610 5613 5615 5618 5620 5622
5660 5656 5654 5648 5645 5641 5636 5632 5628 5625 5621 5616 5614 5615 5615 5613 5609 5601 5596 5592 5589 5586 5584 5583 5582 5583 5584 5582 5580 5580 5580 5581 5582 5585 5588 5591 5594 5598 5601 5604 5607 5610 5613
5648 5645 5640 5637 5633 5628 5624 5620 5615 5612 5611 5606 5601 5600 5603 5604 5600 5592 5583 5577 5574 5572 5572 5571 5571 5570 5570 5570 5572 5570 5569 5569 5570 5572 5575 5578 5581 5585 5588 5592 5595 5599 5603
5637 5632 5629 5626 5621 5619 5616 5608 5603 5599 5597 5593 5588 5582 5582 5584 5577 5574 5569 5563 5559 5558 5558 5558 5559 5559 5559 5559 5559 5560 5559 5558 5558 5559 5562 5565 5568 5571 5575 5579 5583 5587 5591
5626 5622 5617 5613 5609 5607 5601 5598 5593 5586 5579 5578 5573 5565 5558 5553 5550 5553 5552 5550 5548 5547 5547 5548 5549 5548 5548 5549 5550 5548 5546 5545 5546 5547 5549 5552 5555 5558 5562 5566 5570 5574 5578
5615 5610 5605 5601 5596 5593 5587 5580 5575 5569 5566 5560 5554 5549 5543 5538 5535 5535 5537 5537 5537 5538 5539 5538 5539 5538 5538 5538 5538 5539 5537 5535 5533 5534 5536 5539 5542 5546 5549 5553 5556 5560 5565
5605 5599 5593 5588 5584 5580 5573 5567 5560 5555 5548 5541 5536 5532 5528 5525 5523 5522 5524 5525 5527 5528 5527 5526 5526 5527 5527 5527 5527 5526 5523 5520 5520 5521 5523 5525 5528 5532 5536 5539 5543 5546 5551
5596 5587 5581 5575 5570 5564 5558 5552 5546 5540 5534 5526 5521 5518 5514 5511 5509 5508 5509 5512 5513 5514 5513 5514 5515 5515 5513 5512 5512 5509 5508 5506 5506 5507 5508 5511 5514 5517 5521 5525 5529 5533 5537
5582 5573 5566 5561 5556 5550 5545 5539 5534 5528 5520 5513 5509 5503 5499 5499 5497 5495 5494 5495 5498 5500 5500 5500 5499 5497 5497 5496 5494 5491 5492 5492 5492 5492 5494 5496 5500 5504 5508 5512 5516 5520 5524
5567 5560 5554 5549 5544 5538 5531 5525 5522 5513 5507 5502 5498 5495 5490 5488 5485 5483 5480 5478 5476 5478 5483 5482 5479 5479 5478 5477 5476 5476 5477 5478 5479 5479 5481 5483 5486 5491 5495 5500 5504 5509 5513
5553 5548 5543 5538 5532 5526 5520 5513 5509 5504 5496 5491 5487 5482 5478 5475 5473 5468 5466 5463 5460 5457 5460 5460 5459 5459 5459 5460 5462 5463 5465 5466 5467 5469 5470 5473 5476 5480 5485 5490 5494 5499 5503
5542 5536 5532 5526 5521 5516 5510 5504 5498 5492 5487 5482 5477 5473 5468 5463 5458 5454 5450 5448 5445 5442 5443 5447 5444 5445 5445 5447 5450 5452 5455 5458 5462 5462 5464 5466 5469 5473 5477 5482 5486 5491 5495
5531 5526 5521 5516 5511 5506 5500 5494 5488 5483 5478 5473 5467 5462 5456 5450 5445 5440 5436 5434 5431 5428 5428 5431 5433 5435 5437 5439 5442 5444 5448 5452 5454 5456 5457 5459 5462 5466 5470 5474 5478 5483 5487
5521 5516 5512 5507 5502 5497 5491 5485 5479 5473 5467 5461 5455 5449 5442 5436 5432 5428 5424 5422 5420 5420 5419 5421 5425 5427 5430 5434 5437 5440 5443 5445 5448 5451 5452 5454 5457 5461 5464 5468 5472 5476 5480
5511 5507 5502 5497 5492 5486 5481 5475 5468 5462 5455 5449 5443 5436 5430 5426 5422 5418 5416 5413 5412 5412 5412 5414 5418 5422 5427 5431 5433 5435 5438 5441 5443 5446 5449 5452 5454 5457 5460 5463 5467 5471 5474
5502 5498 5492 5486 5480 5475 5467 5456 5450 5447 5442 5437 5431 5425 5421 5417 5413 5409 5408 5407 5406 5406 5407 5410 5414 5419 5424 5427 5430 5432 5434 5437 5440 5442 5446 5450 5453 5457 5460 5462 5464 5467 5471
5492 5486 5480 5473 5467 5460 5444 5435 5429 5430 5428 5425 5422 5417 5414 5411 5409 5406 5403 5402 5401 5403 5406 5408 5412 5416 5422 5426 5428 5430 5431 5433 5438 5442 5443 5449 5451 5454 5457 5459 5461 5463 5467
5479 5472 5464 5458 5451 5442 5430 5422 5416 5413 5416 5414 5411 5408 5406 5406 5403 5404 5403 5402 5402 5404 5405 5407 5412 5417 5422 5426 5428 5431 5433 5435 5438 5437 5438 5446 5450 5451 5452 5454 5455 5459 5465
5464 5457 5450 5443 5436 5430 5419 5410 5405 5406 5407 5405 5403 5402 5401 5401 5402 5401 5401 5402 5405 5408 5409 5411 5414 5419 5424 5428 5430 5432 5434 5435 5435 5436 5437 5442 5446 5446 5447 5449 5451 5456 5463
5450 5444 5438 5431 5424 5418 5409 5401 5396 5398 5400 5399 5398 5399 5399 5400 5400 5399 5400 5404 5408 5412 5413 5415 5417 5421 5425 5429 5432 5434 5436 5438 5440 5439 5437 5438 5441 5441 5443 5445 5448 5454 5463
5438 5432 5426 5420 5413 5407 5400 5394 5389 5392 5393 5393 5395 5397 5399 5399 5400 5401 5403 5407 5411 5414 5416 5418 5421 5424 5428 5431 5434 5436 5439 5441 5443 5442 5438 5436 5438 5438 5441 5441 5443 5450 5460